iso_date,Year,Hour,Min,DOY,POS_DOY,Lat,Lon,BP,Ts,Ta,has_bp,has_ts,has_ta,BuoyID,Buoy_Type,Buoy_Owner,Logistics,Hemisphere
2022-01-10T16:01:03Z,2022,16,1,10.6674,10.6674,71.669,-2.817,-999.0,1.8,-999.0,no,yes,no,300234066217890,SVPGHI,AOML,NEIL_ARMSTRON,North
2022-01-10T17:00:57Z,2022,17,1,10.709,10.709,71.673,-2.806,-999.0,2.3,-999.0,no,yes,no,300234066217890,SVPGHI,AOML,NEIL_ARMSTRON,North
2022-01-10T18:00:00Z,2022,18,0,10.75,10.75,71.678,-2.797,-999.0,2.09,-999.0,no,yes,no,300234066217890,SVPGHI,AOML,NEIL_ARMSTRON,North
2022-01-10T19:00:02Z,2022,19,0,10.7917,10.7917,71.684,-2.791,-999.0,1.94,-999.0,no,yes,no,300234066217890,SVPGHI,AOML,NEIL_ARMSTRON,North
2022-01-10T19:59:57Z,2022,20,0,10.8333,10.8333,71.689,-2.788,-999.0,1.8,-999.0,no,yes,no,300234066217890,SVPGHI,AOML,NEIL_ARMSTRON,North
2022-01-10T21:00:00Z,2022,21,0,10.875,10.875,71.695,-2.792,-999.0,1.72,-999.0,no,yes,no,300234066217890,SVPGHI,AOML,NEIL_ARMSTRON,North
2022-01-10T22:02:03Z,2022,22,2,10.9181,10.9181,71.701,-2.793,-999.0,1.62,-999.0,no,yes,no,300234066217890,SVPGHI,AOML,NEIL_ARMSTRON,North
2022-01-10T22:59:57Z,2022,23,0,10.9583,10.9583,71.707,-2.792,-999.0,1.63,-999.0,no,yes,no,300234066217890,SVPGHI,AOML,NEIL_ARMSTRON,North
2022-01-11T00:01:00Z,2022,0,1,11.0007,11.0007,71.714,-2.788,-999.0,1.67,-999.0,no,yes,no,300234066217890,SVPGHI,AOML,NEIL_ARMSTRON,North
2022-01-11T01:03:56Z,2022,1,4,11.0444,11.0444,-90.0,-180.0,-999.0,1.68,-999.0,no,yes,no,300234066217890,SVPGHI,AOML,NEIL_ARMSTRON,North
2022-01-11T02:03:59Z,2022,2,4,11.0861,11.0861,71.729,-2.763,-999.0,1.71,-999.0,no,yes,no,300234066217890,SVPGHI,AOML,NEIL_ARMSTRON,North
2022-01-11T03:02:00Z,2022,3,2,11.1264,11.1264,71.733,-2.746,-999.0,1.7,-999.0,no,yes,no,300234066217890,SVPGHI,AOML,NEIL_ARMSTRON,North
2022-01-11T04:02:55Z,2022,4,3,11.1687,11.1687,71.733,-2.72,-999.0,1.71,-999.0,no,yes,no,300234066217890,SVPGHI,AOML,NEIL_ARMSTRON,North
2022-01-11T04:59:57Z,2022,5,0,11.2083,11.2083,71.737,-2.702,-999.0,1.7,-999.0,no,yes,no,300234066217890,SVPGHI,AOML,NEIL_ARMSTRON,North
2022-01-11T06:00:00Z,2022,6,0,11.25,11.25,71.738,-2.692,-999.0,1.76,-999.0,no,yes,no,300234066217890,SVPGHI,AOML,NEIL_ARMSTRON,North
2022-01-11T07:00:02Z,2022,7,0,11.2917,11.2917,71.743,-2.686,-999.0,1.89,-999.0,no,yes,no,300234066217890,SVPGHI,AOML,NEIL_ARMSTRON,North
2022-01-11T08:02:58Z,2022,8,3,11.3354,11.3354,71.749,-2.682,-999.0,1.77,-999.0,no,yes,no,300234066217890,SVPGHI,AOML,NEIL_ARMSTRON,North
2022-01-11T09:00:00Z,2022,9,0,11.375,11.375,71.757,-2.679,-999.0,1.97,-999.0,no,yes,no,300234066217890,SVPGHI,AOML,NEIL_ARMSTRON,North
2022-01-11T10:00:02Z,2022,10,0,11.4167,11.4167,71.767,-2.67,-999.0,2.2,-999.0,no,yes,no,300234066217890,SVPGHI,AOML,NEIL_ARMSTRON,North
2022-01-11T12:00:00Z,2022,12,0,11.5,11.5,71.787,-2.652,-999.0,1.86,-999.0,no,yes,no,300234066217890,SVPGHI,AOML,NEIL_ARMSTRON,North
2022-01-11T13:03:56Z,2022,13,4,11.5444,11.5444,71.792,-2.649,-999.0,1.95,-999.0,no,yes,no,300234066217890,SVPGHI,AOML,NEIL_ARMSTRON,North
2022-01-11T14:03:59Z,2022,14,4,11.5861,11.5861,71.802,-2.633,-999.0,2.11,-999.0,no,yes,no,300234066217890,SVPGHI,AOML,NEIL_ARMSTRON,North
2022-01-11T15:04:01Z,2022,15,4,11.6278,11.6278,71.813,-2.639,-999.0,2.03,-999.0,no,yes,no,300234066217890,SVPGHI,AOML,NEIL_ARMSTRON,North
2022-01-11T16:00:02Z,2022,16,0,11.6667,11.6667,71.819,-2.632,-999.0,2.08,-999.0,no,yes,no,300234066217890,SVPGHI,AOML,NEIL_ARMSTRON,North
2022-01-11T17:01:58Z,2022,17,2,11.7097,11.7097,71.823,-2.629,-999.0,2.13,-999.0,no,yes,no,300234066217890,SVPGHI,AOML,NEIL_ARMSTRON,North
2022-01-11T18:00:00Z,2022,18,0,11.75,11.75,71.828,-2.62,-999.0,2.16,-999.0,no,yes,no,300234066217890,SVPGHI,AOML,NEIL_ARMSTRON,North
2022-01-11T19:00:02Z,2022,19,0,11.7917,11.7917,71.832,-2.613,-999.0,2.27,-999.0,no,yes,no,300234066217890,SVPGHI,AOML,NEIL_ARMSTRON,North
2022-01-11T20:02:58Z,2022,20,3,11.8354,11.8354,71.832,-2.606,-999.0,2.26,-999.0,no,yes,no,300234066217890,SVPGHI,AOML,NEIL_ARMSTRON,North
2022-01-11T21:00:00Z,2022,21,0,11.875,11.875,71.833,-2.6,-999.0,2.24,-999.0,no,yes,no,300234066217890,SVPGHI,AOML,NEIL_ARMSTRON,North
2022-01-11T22:03:56Z,2022,22,4,11.9194,11.9194,71.834,-2.599,-999.0,2.31,-999.0,no,yes,no,300234066217890,SVPGHI,AOML,NEIL_ARMSTRON,North
2022-01-11T22:59:57Z,2022,23,0,11.9583,11.9583,71.834,-2.597,-999.0,2.13,-999.0,no,yes,no,300234066217890,SVPGHI,AOML,NEIL_ARMSTRON,North
2022-01-12T00:04:01Z,2022,0,4,12.0028,12.0028,71.836,-2.619,-999.0,2.03,-999.0,no,yes,no,300234066217890,SVPGHI,AOML,NEIL_ARMSTRON,North
2022-01-12T01:00:02Z,2022,1,0,12.0417,12.0417,71.842,-2.602,-999.0,1.99,-999.0,no,yes,no,300234066217890,SVPGHI,AOML,NEIL_ARMSTRON,North
2022-01-12T01:59:57Z,2022,2,0,12.0833,12.0833,71.844,-2.594,-999.0,1.99,-999.0,no,yes,no,300234066217890,SVPGHI,AOML,NEIL_ARMSTRON,North
2022-01-12T03:00:00Z,2022,3,0,12.125,12.125,71.845,-2.585,-999.0,1.91,-999.0,no,yes,no,300234066217890,SVPGHI,AOML,NEIL_ARMSTRON,North
2022-01-12T04:02:03Z,2022,4,2,12.1681,12.1681,71.848,-2.576,-999.0,1.77,-999.0,no,yes,no,300234066217890,SVPGHI,AOML,NEIL_ARMSTRON,North
2022-01-12T04:59:57Z,2022,5,0,12.2083,12.2083,71.849,-2.567,-999.0,1.71,-999.0,no,yes,no,300234066217890,SVPGHI,AOML,NEIL_ARMSTRON,North
2022-01-12T06:00:00Z,2022,6,0,12.25,12.25,71.85,-2.56,-999.0,1.68,-999.0,no,yes,no,300234066217890,SVPGHI,AOML,NEIL_ARMSTRON,North
2022-01-12T07:00:02Z,2022,7,0,12.2917,12.2917,71.851,-2.554,-999.0,1.65,-999.0,no,yes,no,300234066217890,SVPGHI,AOML,NEIL_ARMSTRON,North
2022-01-12T08:01:58Z,2022,8,2,12.3347,12.3347,71.85,-2.551,-999.0,1.63,-999.0,no,yes,no,300234066217890,SVPGHI,AOML,NEIL_ARMSTRON,North
2022-01-12T09:00:00Z,2022,9,0,12.375,12.375,71.851,-2.551,-999.0,1.63,-999.0,no,yes,no,300234066217890,SVPGHI,AOML,NEIL_ARMSTRON,North
2022-01-12T10:00:02Z,2022,10,0,12.4167,12.4167,71.85,-2.54,-999.0,1.68,-999.0,no,yes,no,300234066217890,SVPGHI,AOML,NEIL_ARMSTRON,North
2022-01-12T10:59:57Z,2022,11,0,12.4583,12.4583,71.848,-2.538,-999.0,1.92,-999.0,no,yes,no,300234066217890,SVPGHI,AOML,NEIL_ARMSTRON,North
2022-01-12T12:03:01Z,2022,12,3,12.5021,12.5021,71.845,-2.539,-999.0,1.76,-999.0,no,yes,no,300234066217890,SVPGHI,AOML,NEIL_ARMSTRON,North
2022-01-12T13:00:02Z,2022,13,0,12.5417,12.5417,71.844,-2.536,-999.0,1.62,-999.0,no,yes,no,300234066217890,SVPGHI,AOML,NEIL_ARMSTRON,North
2022-01-12T13:59:57Z,2022,14,0,12.5833,12.5833,71.844,-2.528,-999.0,1.59,-999.0,no,yes,no,300234066217890,SVPGHI,AOML,NEIL_ARMSTRON,North
2022-01-12T16:00:02Z,2022,16,0,12.6667,12.6667,71.849,-2.515,-999.0,2.12,-999.0,no,yes,no,300234066217890,SVPGHI,AOML,NEIL_ARMSTRON,North
2022-01-12T18:04:01Z,2022,18,4,12.7528,12.7528,71.856,-2.498,-999.0,2.08,-999.0,no,yes,no,300234066217890,SVPGHI,AOML,NEIL_ARMSTRON,North
2022-01-12T19:02:03Z,2022,19,2,12.7931,12.7931,71.859,-2.485,-999.0,2.55,-999.0,no,yes,no,300234066217890,SVPGHI,AOML,NEIL_ARMSTRON,North
2022-01-12T20:03:59Z,2022,20,4,12.8361,12.8361,71.858,-2.48,-999.0,2.32,-999.0,no,yes,no,300234066217890,SVPGHI,AOML,NEIL_ARMSTRON,North
2022-01-12T21:04:01Z,2022,21,4,12.8778,12.8778,71.863,-2.48,-999.0,2.62,-999.0,no,yes,no,300234066217890,SVPGHI,AOML,NEIL_ARMSTRON,North
2022-01-12T22:59:57Z,2022,23,0,12.9583,12.9583,71.866,-2.474,-999.0,2.59,-999.0,no,yes,no,300234066217890,SVPGHI,AOML,NEIL_ARMSTRON,North
2022-01-13T01:00:02Z,2022,1,0,13.0417,13.0417,71.869,-2.464,-999.0,2.64,-999.0,no,yes,no,300234066217890,SVPGHI,AOML,NEIL_ARMSTRON,North
2022-01-13T01:59:57Z,2022,2,0,13.0833,13.0833,71.869,-2.451,-999.0,2.83,-999.0,no,yes,no,300234066217890,SVPGHI,AOML,NEIL_ARMSTRON,North
2022-01-13T03:00:00Z,2022,3,0,13.125,13.125,71.867,-2.436,-999.0,2.77,-999.0,no,yes,no,300234066217890,SVPGHI,AOML,NEIL_ARMSTRON,North
2022-01-13T04:00:02Z,2022,4,0,13.1667,13.1667,71.864,-2.415,-999.0,2.71,-999.0,no,yes,no,300234066217890,SVPGHI,AOML,NEIL_ARMSTRON,North
2022-01-13T05:01:58Z,2022,5,2,13.2097,13.2097,71.863,-2.399,-999.0,2.76,-999.0,no,yes,no,300234066217890,SVPGHI,AOML,NEIL_ARMSTRON,North
2022-01-13T06:00:00Z,2022,6,0,13.25,13.25,71.86,-2.384,-999.0,2.78,-999.0,no,yes,no,300234066217890,SVPGHI,AOML,NEIL_ARMSTRON,North
2022-01-13T07:00:02Z,2022,7,0,13.2917,13.2917,71.857,-2.373,-999.0,2.79,-999.0,no,yes,no,300234066217890,SVPGHI,AOML,NEIL_ARMSTRON,North
2022-01-13T08:01:58Z,2022,8,2,13.3347,13.3347,71.851,-2.355,-999.0,2.76,-999.0,no,yes,no,300234066217890,SVPGHI,AOML,NEIL_ARMSTRON,North
2022-01-13T09:00:00Z,2022,9,0,13.375,13.375,71.846,-2.343,-999.0,2.76,-999.0,no,yes,no,300234066217890,SVPGHI,AOML,NEIL_ARMSTRON,North
2022-01-13T10:00:02Z,2022,10,0,13.4167,13.4167,71.843,-2.333,-999.0,2.72,-999.0,no,yes,no,300234066217890,SVPGHI,AOML,NEIL_ARMSTRON,North
2022-01-13T12:04:01Z,2022,12,4,13.5028,13.5028,-90.0,-180.0,-999.0,2.73,-999.0,no,yes,no,300234066217890,SVPGHI,AOML,NEIL_ARMSTRON,North
2022-01-13T13:03:56Z,2022,13,4,13.5444,13.5444,71.829,-2.299,-999.0,2.73,-999.0,no,yes,no,300234066217890,SVPGHI,AOML,NEIL_ARMSTRON,North
2022-01-13T14:03:59Z,2022,14,4,13.5861,13.5861,-90.0,-180.0,-999.0,2.75,-999.0,no,yes,no,300234066217890,SVPGHI,AOML,NEIL_ARMSTRON,North
2022-01-13T15:00:00Z,2022,15,0,13.625,13.625,71.819,-2.268,-999.0,2.63,-999.0,no,yes,no,300234066217890,SVPGHI,AOML,NEIL_ARMSTRON,North
2022-01-13T16:00:02Z,2022,16,0,13.6667,13.6667,71.812,-2.25,-999.0,2.53,-999.0,no,yes,no,300234066217890,SVPGHI,AOML,NEIL_ARMSTRON,North
2022-01-13T16:59:57Z,2022,17,0,13.7083,13.7083,71.804,-2.231,-999.0,2.36,-999.0,no,yes,no,300234066217890,SVPGHI,AOML,NEIL_ARMSTRON,North
2022-01-13T18:00:00Z,2022,18,0,13.75,13.75,71.793,-2.213,-999.0,1.71,-999.0,no,yes,no,300234066217890,SVPGHI,AOML,NEIL_ARMSTRON,North
2022-01-13T19:02:55Z,2022,19,3,13.7937,13.7937,71.782,-2.201,-999.0,1.67,-999.0,no,yes,no,300234066217890,SVPGHI,AOML,NEIL_ARMSTRON,North
2022-01-13T20:03:59Z,2022,20,4,13.8361,13.8361,71.767,-2.196,-999.0,1.89,-999.0,no,yes,no,300234066217890,SVPGHI,AOML,NEIL_ARMSTRON,North
2022-01-13T21:00:00Z,2022,21,0,13.875,13.875,71.756,-2.197,-999.0,1.66,-999.0,no,yes,no,300234066217890,SVPGHI,AOML,NEIL_ARMSTRON,North
2022-01-13T22:03:56Z,2022,22,4,13.9194,13.9194,-90.0,-180.0,-999.0,1.47,-999.0,no,yes,no,300234066217890,SVPGHI,AOML,NEIL_ARMSTRON,North
2022-01-13T23:00:57Z,2022,23,1,13.959,13.959,71.736,-2.205,-999.0,1.51,-999.0,no,yes,no,300234066217890,SVPGHI,AOML,NEIL_ARMSTRON,North
2022-01-14T00:04:01Z,2022,0,4,14.0028,14.0028,71.726,-2.216,-999.0,1.67,-999.0,no,yes,no,300234066217890,SVPGHI,AOML,NEIL_ARMSTRON,North
2022-01-14T01:03:56Z,2022,1,4,14.0444,14.0444,71.716,-2.218,-999.0,1.55,-999.0,no,yes,no,300234066217890,SVPGHI,AOML,NEIL_ARMSTRON,North
2022-01-14T02:00:57Z,2022,2,1,14.084,14.084,71.708,-2.231,-999.0,1.57,-999.0,no,yes,no,300234066217890,SVPGHI,AOML,NEIL_ARMSTRON,North
2022-01-14T03:00:00Z,2022,3,0,14.125,14.125,71.699,-2.238,-999.0,1.54,-999.0,no,yes,no,300234066217890,SVPGHI,AOML,NEIL_ARMSTRON,North
2022-01-14T04:59:57Z,2022,5,0,14.2083,14.2083,71.682,-2.251,-999.0,1.49,-999.0,no,yes,no,300234066217890,SVPGHI,AOML,NEIL_ARMSTRON,North
2022-01-14T06:00:00Z,2022,6,0,14.25,14.25,71.674,-2.256,-999.0,1.46,-999.0,no,yes,no,300234066217890,SVPGHI,AOML,NEIL_ARMSTRON,North
2022-01-14T07:00:02Z,2022,7,0,14.2917,14.2917,71.665,-2.265,-999.0,1.43,-999.0,no,yes,no,300234066217890,SVPGHI,AOML,NEIL_ARMSTRON,North
2022-01-14T08:03:59Z,2022,8,4,14.3361,14.3361,71.656,-2.27,-999.0,1.36,-999.0,no,yes,no,300234066217890,SVPGHI,AOML,NEIL_ARMSTRON,North
2022-01-14T10:03:56Z,2022,10,4,14.4194,14.4194,71.641,-2.298,-999.0,1.24,-999.0,no,yes,no,300234066217890,SVPGHI,AOML,NEIL_ARMSTRON,North
2022-01-14T11:03:59Z,2022,11,4,14.4611,14.4611,71.633,-2.311,-999.0,1.19,-999.0,no,yes,no,300234066217890,SVPGHI,AOML,NEIL_ARMSTRON,North
2022-01-14T12:02:00Z,2022,12,2,14.5014,14.5014,71.626,-2.323,-999.0,1.16,-999.0,no,yes,no,300234066217890,SVPGHI,AOML,NEIL_ARMSTRON,North
2022-01-14T13:00:02Z,2022,13,0,14.5417,14.5417,71.621,-2.338,-999.0,1.13,-999.0,no,yes,no,300234066217890,SVPGHI,AOML,NEIL_ARMSTRON,North
2022-01-14T13:59:57Z,2022,14,0,14.5833,14.5833,71.615,-2.351,-999.0,1.11,-999.0,no,yes,no,300234066217890,SVPGHI,AOML,NEIL_ARMSTRON,North
2022-01-14T15:00:00Z,2022,15,0,14.625,14.625,71.609,-2.36,-999.0,1.05,-999.0,no,yes,no,300234066217890,SVPGHI,AOML,NEIL_ARMSTRON,North
2022-01-14T16:03:56Z,2022,16,4,14.6694,14.6694,71.604,-2.368,-999.0,1.02,-999.0,no,yes,no,300234066217890,SVPGHI,AOML,NEIL_ARMSTRON,North
2022-01-14T16:59:57Z,2022,17,0,14.7083,14.7083,71.599,-2.377,-999.0,1.0,-999.0,no,yes,no,300234066217890,SVPGHI,AOML,NEIL_ARMSTRON,North
2022-01-14T18:00:00Z,2022,18,0,14.75,14.75,71.595,-2.381,-999.0,0.99,-999.0,no,yes,no,300234066217890,SVPGHI,AOML,NEIL_ARMSTRON,North
2022-01-14T19:00:02Z,2022,19,0,14.7917,14.7917,71.656,-2.552,-999.0,0.97,-999.0,no,yes,no,300234066217890,SVPGHI,AOML,NEIL_ARMSTRON,North
2022-01-14T19:59:57Z,2022,20,0,14.8333,14.8333,71.585,-2.385,-999.0,0.98,-999.0,no,yes,no,300234066217890,SVPGHI,AOML,NEIL_ARMSTRON,North
2022-01-14T21:00:00Z,2022,21,0,14.875,14.875,71.579,-2.387,-999.0,1.62,-999.0,no,yes,no,300234066217890,SVPGHI,AOML,NEIL_ARMSTRON,North
2022-01-14T22:02:03Z,2022,22,2,14.9181,14.9181,71.569,-2.384,-999.0,2.15,-999.0,no,yes,no,300234066217890,SVPGHI,AOML,NEIL_ARMSTRON,North
2022-01-14T22:59:57Z,2022,23,0,14.9583,14.9583,71.559,-2.385,-999.0,0.97,-999.0,no,yes,no,300234066217890,SVPGHI,AOML,NEIL_ARMSTRON,North
2022-01-15T00:00:00Z,2022,0,0,15.0,15.0,71.552,-2.387,-999.0,1.26,-999.0,no,yes,no,300234066217890,SVPGHI,AOML,NEIL_ARMSTRON,North
2022-01-15T01:01:03Z,2022,1,1,15.0424,15.0424,71.543,-2.402,-999.0,1.39,-999.0,no,yes,no,300234066217890,SVPGHI,AOML,NEIL_ARMSTRON,North
2022-01-15T02:03:59Z,2022,2,4,15.0861,15.0861,71.536,-2.406,-999.0,1.21,-999.0,no,yes,no,300234066217890,SVPGHI,AOML,NEIL_ARMSTRON,North
2022-01-15T03:01:00Z,2022,3,1,15.1257,15.1257,71.533,-2.415,-999.0,1.3,-999.0,no,yes,no,300234066217890,SVPGHI,AOML,NEIL_ARMSTRON,North
2022-01-15T04:02:55Z,2022,4,3,15.1687,15.1687,71.529,-2.427,-999.0,1.37,-999.0,no,yes,no,300234066217890,SVPGHI,AOML,NEIL_ARMSTRON,North
2022-01-15T04:59:57Z,2022,5,0,15.2083,15.2083,71.526,-2.436,-999.0,1.4,-999.0,no,yes,no,300234066217890,SVPGHI,AOML,NEIL_ARMSTRON,North
2022-01-15T06:00:00Z,2022,6,0,15.25,15.25,71.523,-2.442,-999.0,2.15,-999.0,no,yes,no,300234066217890,SVPGHI,AOML,NEIL_ARMSTRON,North
2022-01-15T07:00:02Z,2022,7,0,15.2917,15.2917,71.52,-2.442,-999.0,3.11,-999.0,no,yes,no,300234066217890,SVPGHI,AOML,NEIL_ARMSTRON,North
2022-01-15T08:03:59Z,2022,8,4,15.3361,15.3361,71.514,-2.435,-999.0,3.21,-999.0,no,yes,no,300234066217890,SVPGHI,AOML,NEIL_ARMSTRON,North
2022-01-15T09:00:00Z,2022,9,0,15.375,15.375,71.506,-2.443,-999.0,3.14,-999.0,no,yes,no,300234066217890,SVPGHI,AOML,NEIL_ARMSTRON,North
2022-01-15T10:00:02Z,2022,10,0,15.4167,15.4167,71.498,-2.455,-999.0,3.11,-999.0,no,yes,no,300234066217890,SVPGHI,AOML,NEIL_ARMSTRON,North
2022-01-15T12:00:00Z,2022,12,0,15.5,15.5,71.476,-2.487,-999.0,3.4,-999.0,no,yes,no,300234066217890,SVPGHI,AOML,NEIL_ARMSTRON,North
2022-01-15T13:00:02Z,2022,13,0,15.5417,15.5417,71.468,-2.512,-999.0,3.5,-999.0,no,yes,no,300234066217890,SVPGHI,AOML,NEIL_ARMSTRON,North
2022-01-15T14:00:57Z,2022,14,1,15.584,15.584,71.458,-2.536,-999.0,3.5,-999.0,no,yes,no,300234066217890,SVPGHI,AOML,NEIL_ARMSTRON,North
2022-01-15T15:00:00Z,2022,15,0,15.625,15.625,71.451,-2.56,-999.0,3.45,-999.0,no,yes,no,300234066217890,SVPGHI,AOML,NEIL_ARMSTRON,North
2022-01-15T16:03:56Z,2022,16,4,15.6694,15.6694,71.445,-2.585,-999.0,3.12,-999.0,no,yes,no,300234066217890,SVPGHI,AOML,NEIL_ARMSTRON,North
2022-01-15T16:59:57Z,2022,17,0,15.7083,15.7083,71.442,-2.601,-999.0,2.89,-999.0,no,yes,no,300234066217890,SVPGHI,AOML,NEIL_ARMSTRON,North
2022-01-15T18:00:00Z,2022,18,0,15.75,15.75,71.439,-2.607,-999.0,2.61,-999.0,no,yes,no,300234066217890,SVPGHI,AOML,NEIL_ARMSTRON,North
2022-01-15T19:00:02Z,2022,19,0,15.7917,15.7917,71.436,-2.618,-999.0,2.57,-999.0,no,yes,no,300234066217890,SVPGHI,AOML,NEIL_ARMSTRON,North
2022-01-15T20:02:58Z,2022,20,3,15.8354,15.8354,71.432,-2.627,-999.0,2.48,-999.0,no,yes,no,300234066217890,SVPGHI,AOML,NEIL_ARMSTRON,North
2022-01-15T21:00:00Z,2022,21,0,15.875,15.875,71.427,-2.625,-999.0,2.39,-999.0,no,yes,no,300234066217890,SVPGHI,AOML,NEIL_ARMSTRON,North
2022-01-15T22:03:56Z,2022,22,4,15.9194,15.9194,71.422,-2.63,-999.0,2.36,-999.0,no,yes,no,300234066217890,SVPGHI,AOML,NEIL_ARMSTRON,North
2022-01-15T22:59:57Z,2022,23,0,15.9583,15.9583,71.419,-2.638,-999.0,2.36,-999.0,no,yes,no,300234066217890,SVPGHI,AOML,NEIL_ARMSTRON,North
2022-01-16T00:00:00Z,2022,0,0,16.0,16.0,71.416,-2.646,-999.0,2.34,-999.0,no,yes,no,300234066217890,SVPGHI,AOML,NEIL_ARMSTRON,North
2022-01-16T01:00:02Z,2022,1,0,16.0417,16.0417,71.412,-2.655,-999.0,2.3,-999.0,no,yes,no,300234066217890,SVPGHI,AOML,NEIL_ARMSTRON,North
2022-01-16T01:59:57Z,2022,2,0,16.0833,16.0833,71.409,-2.664,-999.0,2.33,-999.0,no,yes,no,300234066217890,SVPGHI,AOML,NEIL_ARMSTRON,North
2022-01-16T03:00:00Z,2022,3,0,16.125,16.125,71.407,-2.672,-999.0,2.34,-999.0,no,yes,no,300234066217890,SVPGHI,AOML,NEIL_ARMSTRON,North
2022-01-16T04:00:02Z,2022,4,0,16.1667,16.1667,71.406,-2.677,-999.0,2.36,-999.0,no,yes,no,300234066217890,SVPGHI,AOML,NEIL_ARMSTRON,North
2022-01-16T04:59:57Z,2022,5,0,16.2083,16.2083,71.408,-2.682,-999.0,2.33,-999.0,no,yes,no,300234066217890,SVPGHI,AOML,NEIL_ARMSTRON,North
2022-01-16T06:00:00Z,2022,6,0,16.25,16.25,71.404,-2.687,-999.0,2.28,-999.0,no,yes,no,300234066217890,SVPGHI,AOML,NEIL_ARMSTRON,North
2022-01-16T07:00:02Z,2022,7,0,16.2917,16.2917,71.4,-2.692,-999.0,2.29,-999.0,no,yes,no,300234066217890,SVPGHI,AOML,NEIL_ARMSTRON,North
2022-01-16T07:59:57Z,2022,8,0,16.3333,16.3333,71.401,-2.678,-999.0,2.3,-999.0,no,yes,no,300234066217890,SVPGHI,AOML,NEIL_ARMSTRON,North
2022-01-16T09:01:00Z,2022,9,1,16.3757,16.3757,71.396,-2.692,-999.0,2.35,-999.0,no,yes,no,300234066217890,SVPGHI,AOML,NEIL_ARMSTRON,North
2022-01-16T12:00:00Z,2022,12,0,16.5,16.5,71.38,-2.715,-999.0,2.26,-999.0,no,yes,no,300234066217890,SVPGHI,AOML,NEIL_ARMSTRON,North
2022-01-16T13:00:02Z,2022,13,0,16.5417,16.5417,71.371,-2.731,-999.0,2.3,-999.0,no,yes,no,300234066217890,SVPGHI,AOML,NEIL_ARMSTRON,North
2022-01-16T14:00:57Z,2022,14,1,16.584,16.584,71.365,-2.75,-999.0,2.33,-999.0,no,yes,no,300234066217890,SVPGHI,AOML,NEIL_ARMSTRON,North
2022-01-16T15:01:00Z,2022,15,1,16.6257,16.6257,71.357,-2.766,-999.0,2.36,-999.0,no,yes,no,300234066217890,SVPGHI,AOML,NEIL_ARMSTRON,North
2022-01-16T16:03:56Z,2022,16,4,16.6694,16.6694,71.351,-2.781,-999.0,2.49,-999.0,no,yes,no,300234066217890,SVPGHI,AOML,NEIL_ARMSTRON,North
2022-01-16T16:59:57Z,2022,17,0,16.7083,16.7083,71.348,-2.798,-999.0,2.47,-999.0,no,yes,no,300234066217890,SVPGHI,AOML,NEIL_ARMSTRON,North
2022-01-16T18:00:00Z,2022,18,0,16.75,16.75,71.345,-2.803,-999.0,2.45,-999.0,no,yes,no,300234066217890,SVPGHI,AOML,NEIL_ARMSTRON,North
2022-01-16T19:00:02Z,2022,19,0,16.7917,16.7917,71.342,-2.811,-999.0,2.37,-999.0,no,yes,no,300234066217890,SVPGHI,AOML,NEIL_ARMSTRON,North
2022-01-16T19:59:57Z,2022,20,0,16.8333,16.8333,71.337,-2.818,-999.0,2.2,-999.0,no,yes,no,300234066217890,SVPGHI,AOML,NEIL_ARMSTRON,North
2022-01-16T21:00:00Z,2022,21,0,16.875,16.875,71.333,-2.811,-999.0,2.21,-999.0,no,yes,no,300234066217890,SVPGHI,AOML,NEIL_ARMSTRON,North
2022-01-16T22:03:56Z,2022,22,4,16.9194,16.9194,71.328,-2.799,-999.0,2.14,-999.0,no,yes,no,300234066217890,SVPGHI,AOML,NEIL_ARMSTRON,North
2022-01-16T23:03:59Z,2022,23,4,16.9611,16.9611,71.326,-2.794,-999.0,2.17,-999.0,no,yes,no,300234066217890,SVPGHI,AOML,NEIL_ARMSTRON,North
2022-01-17T00:04:01Z,2022,0,4,17.0028,17.0028,71.321,-2.791,-999.0,2.17,-999.0,no,yes,no,300234066217890,SVPGHI,AOML,NEIL_ARMSTRON,North
2022-01-17T01:00:02Z,2022,1,0,17.0417,17.0417,71.315,-2.797,-999.0,2.17,-999.0,no,yes,no,300234066217890,SVPGHI,AOML,NEIL_ARMSTRON,North
2022-01-17T01:59:57Z,2022,2,0,17.0833,17.0833,71.309,-2.803,-999.0,2.2,-999.0,no,yes,no,300234066217890,SVPGHI,AOML,NEIL_ARMSTRON,North
2022-01-17T03:00:00Z,2022,3,0,17.125,17.125,71.305,-2.81,-999.0,2.2,-999.0,no,yes,no,300234066217890,SVPGHI,AOML,NEIL_ARMSTRON,North
2022-01-17T04:00:02Z,2022,4,0,17.1667,17.1667,71.301,-2.813,-999.0,2.21,-999.0,no,yes,no,300234066217890,SVPGHI,AOML,NEIL_ARMSTRON,North
2022-01-17T05:01:58Z,2022,5,2,17.2097,17.2097,71.298,-2.811,-999.0,2.19,-999.0,no,yes,no,300234066217890,SVPGHI,AOML,NEIL_ARMSTRON,North
2022-01-17T06:03:01Z,2022,6,3,17.2521,17.2521,71.29,-2.809,-999.0,2.15,-999.0,no,yes,no,300234066217890,SVPGHI,AOML,NEIL_ARMSTRON,North
2022-01-17T07:00:02Z,2022,7,0,17.2917,17.2917,71.284,-2.807,-999.0,2.13,-999.0,no,yes,no,300234066217890,SVPGHI,AOML,NEIL_ARMSTRON,North
2022-01-17T08:01:58Z,2022,8,2,17.3347,17.3347,71.277,-2.799,-999.0,2.09,-999.0,no,yes,no,300234066217890,SVPGHI,AOML,NEIL_ARMSTRON,North
2022-01-17T09:00:00Z,2022,9,0,17.375,17.375,71.274,-2.792,-999.0,2.05,-999.0,no,yes,no,300234066217890,SVPGHI,AOML,NEIL_ARMSTRON,North
2022-01-17T10:00:02Z,2022,10,0,17.4167,17.4167,71.269,-2.778,-999.0,2.01,-999.0,no,yes,no,300234066217890,SVPGHI,AOML,NEIL_ARMSTRON,North
2022-01-17T11:03:59Z,2022,11,4,17.4611,17.4611,71.262,-2.76,-999.0,2.0,-999.0,no,yes,no,300234066217890,SVPGHI,AOML,NEIL_ARMSTRON,North
2022-01-17T12:00:00Z,2022,12,0,17.5,17.5,71.259,-2.743,-999.0,2.03,-999.0,no,yes,no,300234066217890,SVPGHI,AOML,NEIL_ARMSTRON,North
2022-01-17T13:00:02Z,2022,13,0,17.5417,17.5417,71.254,-2.725,-999.0,2.04,-999.0,no,yes,no,300234066217890,SVPGHI,AOML,NEIL_ARMSTRON,North
2022-01-17T14:00:57Z,2022,14,1,17.584,17.584,71.249,-2.709,-999.0,2.03,-999.0,no,yes,no,300234066217890,SVPGHI,AOML,NEIL_ARMSTRON,North
2022-01-17T15:00:00Z,2022,15,0,17.625,17.625,71.244,-2.69,-999.0,1.99,-999.0,no,yes,no,300234066217890,SVPGHI,AOML,NEIL_ARMSTRON,North
2022-01-17T16:01:03Z,2022,16,1,17.6674,17.6674,71.244,-2.671,-999.0,2.12,-999.0,no,yes,no,300234066217890,SVPGHI,AOML,NEIL_ARMSTRON,North
2022-01-17T17:03:59Z,2022,17,4,17.7111,17.7111,71.245,-2.654,-999.0,2.27,-999.0,no,yes,no,300234066217890,SVPGHI,AOML,NEIL_ARMSTRON,North
2022-01-17T18:04:01Z,2022,18,4,17.7528,17.7528,-90.0,-180.0,-999.0,2.52,-999.0,no,yes,no,300234066217890,SVPGHI,AOML,NEIL_ARMSTRON,North
2022-01-17T19:03:56Z,2022,19,4,17.7944,17.7944,-90.0,-180.0,-999.0,2.71,-999.0,no,yes,no,300234066217890,SVPGHI,AOML,NEIL_ARMSTRON,North
2022-01-17T20:00:57Z,2022,20,1,17.834,17.834,71.25,-2.606,-999.0,2.73,-999.0,no,yes,no,300234066217890,SVPGHI,AOML,NEIL_ARMSTRON,North
2022-01-17T21:00:00Z,2022,21,0,17.875,17.875,71.254,-2.578,-999.0,2.69,-999.0,no,yes,no,300234066217890,SVPGHI,AOML,NEIL_ARMSTRON,North
2022-01-17T22:00:02Z,2022,22,0,17.9167,17.9167,71.256,-2.543,-999.0,2.65,-999.0,no,yes,no,300234066217890,SVPGHI,AOML,NEIL_ARMSTRON,North
2022-01-17T23:03:59Z,2022,23,4,17.9611,17.9611,71.258,-2.506,-999.0,2.59,-999.0,no,yes,no,300234066217890,SVPGHI,AOML,NEIL_ARMSTRON,North
2022-01-18T00:04:01Z,2022,0,4,18.0028,18.0028,71.257,-2.469,-999.0,2.58,-999.0,no,yes,no,300234066217890,SVPGHI,AOML,NEIL_ARMSTRON,North
2022-01-18T01:00:02Z,2022,1,0,18.0417,18.0417,71.251,-2.447,-999.0,2.56,-999.0,no,yes,no,300234066217890,SVPGHI,AOML,NEIL_ARMSTRON,North
2022-01-18T03:00:00Z,2022,3,0,18.125,18.125,71.245,-2.398,-999.0,2.64,-999.0,no,yes,no,300234066217890,SVPGHI,AOML,NEIL_ARMSTRON,North
2022-01-18T04:01:03Z,2022,4,1,18.1674,18.1674,71.243,-2.373,-999.0,2.73,-999.0,no,yes,no,300234066217890,SVPGHI,AOML,NEIL_ARMSTRON,North
2022-01-18T04:59:57Z,2022,5,0,18.2083,18.2083,71.24,-2.347,-999.0,2.75,-999.0,no,yes,no,300234066217890,SVPGHI,AOML,NEIL_ARMSTRON,North
2022-01-18T06:00:00Z,2022,6,0,18.25,18.25,71.241,-2.313,-999.0,2.77,-999.0,no,yes,no,300234066217890,SVPGHI,AOML,NEIL_ARMSTRON,North
2022-01-18T07:00:02Z,2022,7,0,18.2917,18.2917,71.239,-2.283,-999.0,2.76,-999.0,no,yes,no,300234066217890,SVPGHI,AOML,NEIL_ARMSTRON,North
2022-01-18T08:03:59Z,2022,8,4,18.3361,18.3361,71.241,-2.244,-999.0,2.75,-999.0,no,yes,no,300234066217890,SVPGHI,AOML,NEIL_ARMSTRON,North
2022-01-18T09:04:01Z,2022,9,4,18.3778,18.3778,71.241,-2.204,-999.0,2.74,-999.0,no,yes,no,300234066217890,SVPGHI,AOML,NEIL_ARMSTRON,North
2022-01-18T10:03:56Z,2022,10,4,18.4194,18.4194,71.248,-2.156,-999.0,2.86,-999.0,no,yes,no,300234066217890,SVPGHI,AOML,NEIL_ARMSTRON,North